Weather History for Monticello, AR

Change the Weather History Date:

Sunday, September 29, 2013

  Actual Average Record
Temperature  
Mean Temperature 72 °F -  
Max Temperature 75 °F 82 °F 101 °F (1953)
Min Temperature 68 °F 56 °F 43 °F (2003)
Cooling Degree Days 6    
Growing Degree Days 22 (Base 50)    
Moisture  
Dew Point 68 °F    
Average Humidity 90    
Maximum Humidity 94    
Minimum Humidity 64    
Precipitation  
Precipitation 0.23 in - - ()
Sea Level Pressure  
Sea Level Pressure 29.97 in    
Wind  
Wind Speed 2 mph (SSE)    
Max Wind Speed 6 mph    
Max Gust Speed -    
Visibility 7 miles    
Events Rain    
Averages and records for this station are not official NWS values.
T = Trace of Precipitation, MM = Missing Value Source: NWS Daily Summary

Daily Weather History Graph

Daily Weather History Graph

Search for Another Location

Airport:

Trip Planner

Search our weather history database for the weather conditions in past years. The results will help you decide how hot, cold, wet, or windy it might be!

Date:

Astronomy

Sep. 29, 2013 Rise Set
Actual Time 7:00 AM CDT 6:53 PM CDT
Civil Twilight 6:35 AM CDT 7:18 PM CDT
Nautical Twilight 6:06 AM CDT 7:47 PM CDT
Astronomical Twilight 5:37 AM CDT 8:16 PM CDT
Moon 1:54 AM CDT (9/29) 3:38 PM CDT (9/29)
Length of Visible Light 12h 43m
Length of Day
11h 53m
Waning Crescent, 27% of the Moon is Illuminated
Sep 29
Waning Crescent
Oct 4
New
Oct 11
First Quarter
Oct 18
Full
Oct 26
Last Quarter

Hourly Weather History & Observations

Time (CDT) Temp. Dew Point Humidity Pressure Visibility Wind Dir Wind Speed Gust Speed Precip Events Conditions
12:53 AM 75.0 °F 62.1 °F 64% 30.00 in 10.0 mi South 5.8 mph - N/A   Partly Cloudy
1:53 AM 73.9 °F 63.0 °F 68% 29.99 in 10.0 mi South 3.5 mph - 0.00 in   Partly Cloudy
2:53 AM 72.0 °F 63.0 °F 73% 29.99 in 10.0 mi Calm Calm - N/A   Clear
3:53 AM 71.1 °F 64.0 °F 78% 29.99 in 10.0 mi Calm Calm - N/A   Overcast
4:53 AM 72.0 °F 64.0 °F 76% 30.00 in 10.0 mi Calm Calm - N/A   Overcast
5:53 AM 71.1 °F 64.0 °F 78% 30.00 in 10.0 mi Calm Calm - N/A   Overcast
6:53 AM 70.0 °F 64.9 °F 84% 30.00 in 10.0 mi Calm Calm - 0.00 in   Overcast
7:36 AM 69.8 °F 64.4 °F 83% 30.01 in 6.0 mi SE 3.5 mph - 0.01 in Rain Light Rain
7:53 AM 68.0 °F 64.9 °F 90% 29.99 in 10.0 mi SE 5.8 mph - 0.01 in Rain Light Rain
8:53 AM 68.0 °F 66.0 °F 93% 30.00 in 7.0 mi Calm Calm - 0.00 in Rain Light Rain
9:18 AM 68.0 °F 66.2 °F 94% 30.01 in 7.0 mi Calm Calm - 0.00 in   Overcast
9:42 AM 68.0 °F 66.2 °F 94% 30.02 in 6.0 mi Calm Calm - 0.01 in Rain Light Rain
9:47 AM 68.0 °F 66.2 °F 94% 30.02 in 1.8 mi Calm Calm - 0.06 in Rain Heavy Rain
9:53 AM 68.0 °F 66.0 °F 93% 30.01 in 1.5 mi Calm Calm - 0.07 in Rain Rain
10:02 AM 68.0 °F 66.2 °F 94% 30.02 in 2.5 mi East 3.5 mph - 0.01 in Rain Light Rain
10:08 AM 68.0 °F 66.2 °F 94% 30.02 in 3.0 mi Calm Calm - 0.02 in Rain Light Rain
10:23 AM 68.0 °F 64.4 °F 88% 30.02 in 2.0 mi Calm Calm - 0.05 in Rain Rain
10:39 AM 68.0 °F 66.2 °F 94% 30.02 in 8.0 mi Calm Calm - 0.06 in   Overcast
10:50 AM 68.0 °F 66.2 °F 94% 30.02 in 1.8 mi Calm Calm - 0.08 in Rain Light Rain
10:53 AM 68.0 °F 66.0 °F 93% 30.01 in 1.8 mi Calm Calm - 0.08 in Rain Rain
11:04 AM 68.0 °F 66.2 °F 94% 30.02 in 3.0 mi Calm Calm - 0.01 in Rain Light Rain
11:32 AM 69.8 °F 66.2 °F 88% 30.01 in 8.0 mi SE 3.5 mph - 0.01 in   Overcast
11:53 AM 71.1 °F 68.0 °F 90% 30.00 in 8.0 mi SE 3.5 mph - 0.01 in   Overcast
12:53 PM 72.0 °F 69.1 °F 91% 29.98 in 6.0 mi SE 3.5 mph - 0.00 in Rain Light Rain
1:20 PM 73.4 °F 69.8 °F 88% 29.98 in 7.0 mi Calm Calm - 0.00 in   Overcast
1:47 PM 73.4 °F 71.6 °F 94% 29.96 in 2.0 mi SSE 3.5 mph - 0.01 in Rain Light Rain
1:53 PM 73.0 °F 71.1 °F 93% 29.95 in 1.5 mi Variable 4.6 mph - 0.02 in Rain Light Rain
2:09 PM 73.4 °F 71.6 °F 94% 29.95 in 2.0 mi South 3.5 mph - 0.02 in Rain Light Rain
2:21 PM 73.4 °F 71.6 °F 94% 29.95 in 4.0 mi SSW 5.8 mph - 0.02 in Rain Light Rain
2:38 PM 73.4 °F 71.6 °F 94% 29.94 in 2.0 mi SSW 4.6 mph - 0.04 in Rain Light Rain
2:53 PM 73.0 °F 71.1 °F 93% 29.93 in 10.0 mi SSW 5.8 mph - 0.04 in   Overcast
3:12 PM 73.4 °F 71.6 °F 94% 29.93 in 10.0 mi South 5.8 mph - 0.00 in Rain Light Rain
3:30 PM 73.4 °F 71.6 °F 94% 29.93 in 10.0 mi South 5.8 mph - 0.00 in   Overcast
3:53 PM 73.9 °F 71.1 °F 91% 29.92 in 10.0 mi SSE 3.5 mph - 0.00 in   Overcast
4:05 PM 73.4 °F 71.6 °F 94% 29.92 in 10.0 mi SSW 4.6 mph - N/A   Overcast
4:53 PM 73.9 °F 71.1 °F 91% 29.91 in 10.0 mi Calm Calm - N/A   Overcast
5:53 PM 73.9 °F 71.1 °F 91% 29.92 in 10.0 mi Calm Calm - N/A   Overcast
6:14 PM 73.4 °F 71.6 °F 94% 29.92 in 10.0 mi Calm Calm - N/A   Overcast
6:23 PM 73.4 °F 71.6 °F 94% 29.92 in 10.0 mi Calm Calm - N/A   Overcast
6:42 PM 73.4 °F 71.6 °F 94% 29.92 in 10.0 mi SE 3.5 mph - N/A   Overcast
6:53 PM 73.0 °F 71.1 °F 93% 29.92 in 10.0 mi SE 4.6 mph - N/A   Overcast
7:53 PM 73.0 °F 71.1 °F 93% 29.93 in 10.0 mi Calm Calm - 0.00 in Rain Light Rain
8:53 PM 73.0 °F 71.1 °F 93% 29.93 in 10.0 mi Calm Calm - N/A   Overcast
9:53 PM 73.0 °F 71.1 °F 93% 29.93 in 10.0 mi Calm Calm - N/A   Overcast
10:10 PM 73.4 °F 71.6 °F 94% 29.93 in 9.0 mi Calm Calm - N/A   Overcast
10:32 PM 73.4 °F 69.8 °F 88% 29.93 in 9.0 mi Calm Calm - N/A   Mostly Cloudy
10:53 PM 73.0 °F 70.0 °F 90% 29.92 in 8.0 mi SSW 3.5 mph - N/A   Mostly Cloudy
11:45 PM 73.4 °F 69.8 °F 88% 29.93 in 5.0 mi Calm Calm - N/A   Mostly Cloudy
11:53 PM 73.0 °F 70.0 °F 90% 29.92 in 6.0 mi Calm Calm - N/A   Overcast